Volver al catálogo

FREGAT R/B

ActivoPO
NORAD 59073·ROCKET BODY·🇷🇺 Russia

Lanzado Feb 29, 2024 desde Vostochny Cosmodrome

Loading…

Próximos Pases (próximas 24 horas)

TLE

ActualizadoSource: Space-Track

Época: Sep 14, 2026, 00:24 UTC

1 59073U 24039W   26257.01678970  .00000133  00000-0  30734-4 0  9990
2 59073  88.9814 273.2697 0034528  11.6167 348.5828 14.48647988134267

Sigue FREGAT R/B en tiempo real con AllMySat

Download on the App Store